Lid_Strength_Index
-2 -2 -2 -2 -1 -1 -2 -1 -1 -1 -1 -1 -1 -1 -1 -1 -2 -1 -2 -1 -1 -2 -2 -2 -2 -2 0 4 6 1 -1 -1 -1 0 2 3 5 5 7 6 6 6 6 6 5 5 5
-2 -2 -2 -2 -2 -2 -2 -2 -2 -1 -1 -1 -1 -1 -1 -1 -1 -1 -1 -1 -1 -1 -2 -1 -2 -2 2 7 -0 -1 -1 -0 1 1 2 3 4 3 6 6 6 5 5 6 6 6 5
-2 -2 -2 -2 -2 -2 -2 -2 -2 -1 -1 -1 -1 -1 -1 -1 -1 -1 -1 -1 -2 -1 -1 -1 -1 -0 3 5 -0 -1 -0 0 0 1 3 2 2 4 5 7 5 6 8 7 6 6 6
-2 -2 -2 -2 -2 -2 -2 -2 -2 -2 -1 -1 -2 -1 -1 -1 -1 -1 -1 -1 -1 -1 -1 -2 -2 1 6 1 -1 0 -0 1 0 0 1 1 1 3 5 4 6 8 8 10 8 6 6
-2 -2 -1 -1 -2 -2 -2 -2 -2 -2 -1 -1 -1 -1 -0 -1 -1 -1 -1 -1 -1 -1 -1 -1 1 3 6 1 3 1 0 2 1 1 1 1 2 5 6 8 9 9 12 11 10 7 7
-2 -2 -1 -1 -1 -2 -2 -2 -2 -2 -2 -2 -1 -1 -1 -0 -1 -1 -1 -1 -1 -1 -0 1 2 6 5 5 3 2 0 1 3 3 4 5 5 8 8 9 14 12 12 11 11 8 8
-2 -2 -1 -1 -1 -2 -2 -2 -2 -2 -2 -2 -1 -2 -1 0 -1 -2 -1 1 4 5 4 6 7 7 6 4 2 3 1 3 3 5 9 7 10 12 10 8 8 10 11 11 10 8 8
-2 -2 -1 -1 -1 -2 -2 -2 -2 -2 -1 -2 -1 -2 -2 -0 0 -2 -0 4 3 3 8 4 5 6 5 4 7 5 1 6 7 10 8 10 12 8 7 8 9 9 11 11 10 8 9
-2 -2 -2 -1 -1 -1 -2 -2 -2 -2 -2 -2 -1 -2 -2 -2 0 -0 2 2 -0 0 7 7 5 5 6 5 8 7 4 5 8 9 10 11 9 7 8 9 11 10 11 11 11 9 8
-2 -1 -1 -1 -1 -1 -1 -1 -1 -1 -1 -1 -1 -1 -2 -2 2 2 4 1 -1 0 12 11 8 6 5 5 8 5 4 5 7 10 9 9 7 8 9 10 9 12 8 9 10 12 14
-2 -1 -1 -1 -1 -1 -1 -1 -1 -1 -1 -1 -1 -1 -2 -2 1 3 3 1 -1 2 20 9 8 3 4 6 6 6 3 6 9 9 8 10 9 10 11 10 8 11 8 10 10 12 13
-1 -1 -1 -1 -1 -1 -1 -1 -1 -1 -1 -1 -1 -1 -1 -0 0 0 -0 0 2 13 19 13 8 9 9 7 7 6 6 4 6 8 8 8 7 8 8 8 8 8 10 11 11 12 17
-1 -1 -1 -1 -1 -1 -1 -1 -1 -1 -1 -1 -1 -1 -1 -1 3 -1 -0 5 14 18 11 13 12 9 9 10 9 8 9 10 11 14 14 10 10 8 7 10 9 10 12 17 18 18 17
-1 -1 -1 -1 -1 -1 -1 -1 -1 -1 -1 -1 -1 -1 -1 -0 -1 -1 2 11 17 14 14 9 10 10 12 9 10 9 10 12 9 10 11 14 16 10 8 9 11 12 12 15 19 18 16
-1 -1 -1 -1 -1 -1 -1 -1 -1 -1 -1 -1 -1 -0 1 -0 -1 -0 9 15 15 13 10 11 10 13 13 10 10 11 11 11 9 9 13 13 13 9 8 7 8 12 14 9 14 14 16
-1 -1 -0 -0 -0 -0 -1 -1 -1 -1 -1 -1 1 2 2 -1 -0 5 11 13 12 9 9 9 14 11 15 13 12 12 12 9 9 7 7 10 14 11 9 8 8 10 8 15 15 20 20
-1 -0 -0 -0 -0 -0 -1 -1 -1 -1 -1 -1 2 6 2 -1 1 8 12 12 11 9 10 10 11 13 12 13 12 13 12 9 8 8 7 9 11 13 10 12 12 12 13 12 12 14 18
-1 -0 -0 -0 -0 -0 -1 -1 -1 -1 -1 -0 4 9 1 1 9 9 11 10 10 9 10 11 9 9 11 11 12 12 12 9 6 7 11 8 10 14 13 9 8 9 11 11 16 17 14
-1 -0 -0 -0 -0 -0 -1 -1 -1 -1 -1 2 6 6 1 2 11 11 9 11 10 11 11 11 10 9 8 10 13 11 10 7 6 8 10 9 13 17 16 12 10 12 11 10 11 11 15
-1 -0 -0 -0 -0 -1 -1 -1 -1 -1 -1 1 5 9 6 5 6 9 10 10 11 9 10 10 10 9 9 11 9 12 10 8 7 7 7 7 11 13 16 13 11 13 12 11 12 16 15
-1 -0 -1 -1 -1 -1 -1 -1 -1 -1 -1 1 5 8 8 11 9 8 8 10 12 12 9 9 11 11 11 13 12 11 9 9 8 7 8 9 14 12 11 10 10 11 11 12 13 12 15
-1 -0 -1 -1 -1 -1 -1 -1 -1 -1 -0 3 7 8 8 9 7 9 9 11 11 11 9 11 12 11 12 12 11 12 10 10 10 8 9 9 14 12 14 11 11 12 11 10 11 11 11
-1 -1 -1 -1 -1 -1 -1 -1 -1 0 -0 4 4 4 5 7 9 9 10 9 10 10 9 8 9 10 11 10 7 6 6 6 7 9 10 11 13 14 16 12 12 16 12 11 10 9 10
-1 -1 -1 -1 -1 -1 -1 -1 -0 -0 -0 1 2 3 7 9 8 9 8 8 9 9 10 9 8 9 7 4 5 6 7 7 7 8 7 11 12 13 16 14 20 11 7 8 10 9 8
-1 -1 -1 -1 -1 -1 -1 -1 -1 -0 -0 1 3 5 7 9 8 8 8 8 7 7 9 9 8 6 5 7 11 13 13 12 11 9 9 9 12 15 17 17 13 11 9 9 10 11 7
-1 -1 -1 -1 -1 -1 -1 -1 -1 -0 -0 1 2 3 6 9 9 8 9 7 9 9 9 8 7 6 5 9 12 15 17 14 15 13 9 9 9 13 15 18 19 11 8 7 7 14 7
-0 -1 -1 -1 -1 -1 -1 -1 -1 -1 -1 1 2 3 4 8 7 8 9 9 6 8 10 9 9 9 6 11 13 15 15 12 15 15 15 14 13 15 15 17 14 9 8 7 15 12 7
1 0 -1 -1 -1 -1 -1 -1 -1 -1 -1 1 1 2 3 6 6 8 8 8 7 7 10 9 9 10 10 12 13 13 14 12 12 11 13 14 15 15 14 16 18 7 9 11 8 7 7
2 1 0 -0 -1 -1 -1 -1 -1 -1 -1 0 2 2 2 6 7 5 6 6 7 8 9 8 9 9 8 11 11 11 12 11 12 14 9 13 11 12 12 12 8 6 7 6 7 7 9